Location: B
(0.0000°N, 0.0000°E)
Time: 22:19:47
(UTC+02:00)

Amateur Radio Satellites - All Passes

Search period start: 01 September 2015 21:49
Search period end: 02 September 2015 21:49
Location: B, 0.0000°N, 0.0000°E

Satellite Date Start Highest point End Downlink Frequencies (MHz)
Time Altitude Azimuth
BRITE-PL 01 Sep 22:02:25 22:05:35 20° 260° (W) 22:08:39 437.365/2234.400
SEEDS 01 Sep 22:04:17 22:08:21 44° 79° (E) 22:12:26 437.485
Oscar 11 01 Sep 22:16:03 22:17:47 13° 80° (E) 22:19:50 145.826/435.025
COMPASS 1 01 Sep 22:24:51 22:29:03 66° 79° (E) 22:33:14 437.405
HO-68 01 Sep 22:26:58 22:34:07 76° 256° (WSW) 22:41:16 435.675
YUBILEINY 01 Sep 22:27:03 22:35:47 74° 274° (W) 22:44:30 435.215
GOMX 1 01 Sep 22:27:35 22:30:43 20° 261° (W) 22:33:46 467.674
AAUSAT CUBESAT 2 01 Sep 22:34:23 22:38:36 74° 79° (E) 22:42:47 437.432
DOVE 4 01 Sep 22:36:49 22:40:32 29° 260° (W) 22:44:20 437.250
SRMSAT 01 Sep 22:41:15 22:47:02 55° 21° (NNE) 22:52:53 437.500
Cosmos 2491 01 Sep 22:47:48 22:56:08 47° 266° (W) 23:04:26 435.465 / 435.565
DELFI C3 01 Sep 22:53:58 22:57:17 25° 80° (E) 23:00:40 145.870
ZACube-1 01 Sep 22:58:35 23:02:26 30° 79° (E) 23:06:25 437.345
CUBEBUG 2 01 Sep 23:01:14 23:05:39 69° 79° (ENE) 23:10:12 437.445
FUNcube-1 01 Sep 23:03:30 23:07:29 34° 79° (E) 23:11:34 145.935
UWE-3 01 Sep 23:06:40 23:11:01 58° 79° (ENE) 23:15:30 435.000/436.395/437.385
CUTE 1.7 + AOD 2 01 Sep 23:06:54 23:09:46 17° 260° (W) 23:12:26 437.475
CINEMA 3 01 Sep 23:16:45 23:20:26 25° 261° (W) 23:24:07 145.822/145.860
JUGNU 01 Sep 23:19:52 23:25:14 37° 199° (SSW) 23:30:37 437.505
TIGRISAT 01 Sep 23:36:45 23:40:13 24° 100° (E) 23:43:45 435.000
HUMSAT D 01 Sep 23:37:17 23:41:02 31° 79° (E) 23:44:53 437.325/437.525
DX 1 01 Sep 23:44:21 23:47:16 18° 79° (E) 23:50:21 434.975-435.025
Oscar 11 01 Sep 23:50:09 23:53:51 26° 259° (W) 23:57:28 145.826/435.025
ANTELSAT 01 Sep 23:53:30 23:57:40 44° 101° (E) 00:01:49 437.575/2403.000
UKube-1 01 Sep 23:55:15 23:58:36 23° 79° (E) 00:02:04 .
AUBIESAT-1 02 Sep 00:00:42 00:03:44 31° 104° (ESE) 00:06:44 437.475
ESTCUBE 1 02 Sep 00:00:51 00:02:18 12° 80° (E) 00:04:05 437.505/2401.250
M-CUBED/EXP-1 PRIME 02 Sep 00:06:34 00:09:57 54° 104° (ESE) 00:13:12 437.505
POLYITAN 1 02 Sep 00:08:48 00:11:47 19° 101° (E) 00:14:54 437.675
AISAT 02 Sep 00:09:09 00:12:38 24° 79° (E) 00:16:14 437.250
CUBEBUG 1 02 Sep 00:09:30 00:10:35 11° 80° (E) 00:12:01 437.445
DUCHIFAT 1 02 Sep 00:10:49 00:13:44 19° 100° (E) 00:16:48 145.980
POPSAT HIP 1 02 Sep 00:10:59 00:14:02 20° 100° (E) 00:17:15 437.405
VERMONT LUNAR 02 Sep 00:15:10 00:17:45 25° 138° (SE) 00:20:20 437.305
BUGSAT 1 02 Sep 00:16:20 00:17:43 12° 100° (E) 00:19:25 437.445
SO-50 02 Sep 00:18:43 00:22:46 34° 112° (ESE) 00:27:00 436.795
Cosmos 2504 02 Sep 00:23:12 00:30:45 82° 94° (E) 00:38:53 435.465 / 435.565
QB50P2 02 Sep 00:27:20 00:31:15 36° 101° (E) 00:35:12 145.880/145.840
NANOSAT C BR1 02 Sep 00:27:44 00:31:35 34° 101° (E) 00:35:29 145.865
SRMSAT 02 Sep 00:30:28 00:36:17 54° 201° (SSW) 00:42:07 437.500
DELFI C3 02 Sep 00:30:48 00:32:13 11° 260° (W) 00:33:20 145.870
VELOX 1 02 Sep 00:36:20 00:40:38 57° 78° (ENE) 00:44:57 145.980
ZACube-1 02 Sep 00:37:05 00:38:43 11° 261° (W) 00:39:59 437.345
QB50P1 02 Sep 00:41:26 00:45:38 58° 101° (ESE) 00:49:50 145.935-145.965
UNISAT 6 02 Sep 00:44:39 00:48:35 32° 281° (W) 00:52:24 437.425
50 SAT 02 Sep 01:01:03 01:04:46 40° 259° (W) 01:08:29 437.505
JUGNU 02 Sep 01:11:06 01:14:44 16° 193° (SSW) 01:18:19 437.505
TIGRISAT 02 Sep 01:14:30 01:16:51 14° 280° (W) 01:18:53 435.000
HUMSAT D 02 Sep 01:16:14 01:16:40 10° 261° (W) 01:16:44 437.325/437.525
CUSAT 1 02 Sep 01:19:06 01:21:39 32° 279° (W) 01:24:37 437.405
DX 1 02 Sep 01:20:21 01:23:23 18° 259° (W) 01:26:14 434.975-435.025
UKube-1 02 Sep 01:32:11 01:34:36 14° 259° (W) 01:36:47 .
SPROUT 02 Sep 01:34:43 01:38:45 43° 79° (E) 01:42:50 437.525
ESTCUBE 1 02 Sep 01:35:05 01:39:04 30° 259° (WSW) 01:42:58 437.505/2401.250
CUBEBUG 1 02 Sep 01:43:05 01:46:51 28° 259° (W) 01:50:31 437.445
POLYITAN 1 02 Sep 01:44:42 01:47:33 17° 280° (W) 01:50:10 437.675
DUCHIFAT 1 02 Sep 01:46:33 01:49:24 17° 280° (W) 01:52:04 145.980
AISAT 02 Sep 01:46:38 01:49:05 14° 260° (W) 01:51:17 437.250
POPSAT HIP 1 02 Sep 01:47:03 01:49:46 16° 280° (W) 01:52:18 437.405
BUGSAT 1 02 Sep 01:49:26 01:53:04 27° 281° (W) 01:56:37 437.445
VERMONT LUNAR 02 Sep 01:52:31 01:54:06 13° 319° (NW) 01:55:35 437.305
PCSat 02 Sep 01:52:55 01:58:20 78° 289° (WNW) 02:03:43 145.827
DANDE 02 Sep 01:54:46 01:56:30 15° 280° (W) 01:58:16 436.750
SO-50 02 Sep 02:01:31 02:03:16 12° 296° (WNW) 02:04:42 436.795
BEESAT 3 02 Sep 02:09:42 02:13:09 30° 67° (ENE) 02:16:38 437.485
SRMSAT 02 Sep 02:21:14 02:25:47 22° 196° (SSW) 02:30:18 437.500
BEESAT 2 02 Sep 02:23:05 02:26:36 32° 67° (ENE) 02:30:09 435.950
TISAT 1 02 Sep 02:35:03 02:39:06 48° 259° (WSW) 02:43:08 437.305
RS-15 02 Sep 02:39:09 02:48:09 26° 65° (ENE) 02:57:57 29.354- 29.394
SWISSCUBE 02 Sep 02:40:03 02:43:22 20° 79° (E) 02:46:52 437.505
PHONESAT 2.4 02 Sep 02:50:43 02:54:05 50° 138° (SE) 02:57:26 2401.200-2431.200
AIST 2 02 Sep 03:06:51 03:09:11 15° 66° (ENE) 03:11:42 435.215
GONETS M04 02 Sep 03:15:03 03:23:06 44° 94° (E) 03:31:14
ITUPSAT 1 02 Sep 03:17:44 03:22:25 55° 78° (ENE) 03:27:06 437.325
Oscar 19 02 Sep 03:18:13 03:23:22 70° 282° (WNW) 03:28:30 437.125/150
BEESAT 02 Sep 03:50:17 03:54:58 52° 259° (WSW) 03:59:36 436.000
JAS-2 02 Sep 03:52:14 03:56:34 23° 99° (E) 04:00:51 435.910
Gurwin Techsat 1B 02 Sep 04:06:56 04:12:14 83° 283° (WNW) 04:17:34 435.225
SRMSAT 02 Sep 04:13:43 04:15:49 12° 187° (S) 04:17:49 437.500
SWISSCUBE 02 Sep 04:17:24 04:21:06 21° 259° (WSW) 04:24:37 437.505
ITAMSAT 1 02 Sep 04:19:08 04:24:18 76° 283° (WNW) 04:29:32 435.822/435.867
STARS 02 Sep 04:24:57 04:28:12 21° 79° (E) 04:31:34 437.465
AO-7 02 Sep 04:42:06 04:48:54 30° 105° (ESE) 04:56:00 29.400- 29.500
AIST 2 02 Sep 04:44:40 04:47:37 19° 247° (WSW) 04:50:26 435.215
KKS-1 02 Sep 04:45:01 04:49:27 85° 79° (ENE) 04:53:54 437.445
RS-15 02 Sep 04:48:45 05:00:45 59° 248° (WSW) 05:12:38 29.354- 29.394
JUGNU 02 Sep 04:53:08 04:54:55 11° 173° (S) 04:56:46 437.505
MOZHAYETS 4 02 Sep 05:07:06 05:09:06 13° 80° (E) 05:11:25
GONETS M04 02 Sep 05:13:14 05:19:51 23° 276° (W) 05:25:57
Cosmos 2499 02 Sep 05:18:31 05:26:23 81° 94° (E) 05:34:52 435.465 / 435.565
JAS-2 02 Sep 05:36:50 05:41:38 24° 283° (WNW) 05:45:55 435.910
STARS 02 Sep 06:01:39 06:04:30 16° 259° (W) 06:07:09 437.465
SRMSAT 02 Sep 06:05:25 06:06:10 10° 177° (S) 06:06:56 437.500
HORYU 2 02 Sep 06:09:49 06:13:49 33° 281° (WNW) 06:17:47 437.375
ISS 02 Sep 06:16:45 06:18:04 12° 128° (SE) 06:19:32 145.825
AO-7 02 Sep 06:34:08 06:41:34 36° 285° (WNW) 06:48:51 29.400- 29.500
JUGNU 02 Sep 06:40:23 06:44:47 21° 165° (SSE) 06:49:17 437.505
MOZHAYETS 4 02 Sep 06:42:10 06:46:14 29° 259° (W) 06:50:11
CUTE-I 02 Sep 06:53:47 06:55:56 13° 101° (E) 06:58:29 437.470
CUBESAT XI-V 02 Sep 07:02:37 07:06:02 21° 80° (E) 07:09:35 437.345
O/OREOS (USA 219) 02 Sep 07:21:32 07:26:02 65° 255° (WSW) 07:30:32 437.305
Cubesat XI-IV 02 Sep 07:46:06 07:51:19 60° 102° (ESE) 07:56:38 437.490
ISS 02 Sep 07:51:56 07:54:23 19° 307° (NW) 07:56:46 145.825
SRMSAT 02 Sep 07:52:43 07:56:22 16° 167° (SSE) 08:00:05 437.500
JUGNU 02 Sep 08:28:20 08:34:09 51° 160° (SSE) 08:39:59 437.505
CUTE-I 02 Sep 08:30:56 08:35:55 40° 282° (WNW) 08:40:53 437.470
PRISM 02 Sep 08:34:05 08:37:55 38° 78° (ENE) 08:41:45 437.425
CUBESAT XI-V 02 Sep 08:40:09 08:43:21 18° 260° (W) 08:46:21 437.345
BRITE-PL 02 Sep 08:48:54 08:54:13 43° 101° (E) 08:59:29 437.365/2234.400
AIST 1 02 Sep 08:55:13 08:59:29 78° 94° (E) 09:03:44
STRAND 1 02 Sep 08:56:57 09:02:03 66° 257° (WSW) 09:07:07 437.568
YUBILEINY 02 Sep 09:05:54 09:12:43 27° 85° (E) 09:19:53 435.215
GOMX 1 02 Sep 09:11:54 09:16:57 41° 100° (E) 09:21:53 467.674
DOVE 4 02 Sep 09:20:11 09:24:23 26° 100° (E) 09:28:33 437.250
Cosmos 2491 02 Sep 09:25:22 09:33:28 44° 95° (E) 09:41:38 435.465 / 435.565
CUTE 1.7 + AOD 2 02 Sep 09:37:17 09:40:35 23° 100° (E) 09:44:00 437.475
SRMSAT 02 Sep 09:40:36 09:46:04 36° 161° (SSE) 09:51:33 437.500
CANX-2 02 Sep 09:50:50 09:54:48 43° 101° (E) 09:58:50 2200.000
CINEMA 3 02 Sep 09:56:42 10:00:30 25° 100° (E) 10:04:17 145.822/145.860
SEEDS 02 Sep 10:09:54 10:13:57 53° 101° (E) 10:18:02 437.485
JUGNU 02 Sep 10:17:20 10:23:15 58° 339° (NNW) 10:29:09 437.505
HO-68 02 Sep 10:18:28 10:25:40 89° 285° (WNW) 10:32:52 435.675
Oscar 11 02 Sep 10:23:59 10:26:35 17° 100° (E) 10:29:25 145.826/435.025
BRITE-PL 02 Sep 10:29:30 10:32:35 14° 280° (W) 10:35:13 437.365/2234.400
COMPASS 1 02 Sep 10:29:33 10:33:41 78° 101° (E) 10:37:50 437.405
AAUSAT CUBESAT 2 02 Sep 10:38:36 10:42:42 85° 97° (E) 10:46:51 437.432
GOMX 1 02 Sep 10:52:14 10:54:54 13° 281° (W) 10:57:07 467.674
DELFI C3 02 Sep 10:54:08 10:57:20 24° 100° (E) 11:00:38 145.870
DOVE 4 02 Sep 10:58:21 11:01:58 19° 281° (W) 11:05:16 437.250
YUBILEINY 02 Sep 11:01:25 11:09:25 38° 265° (W) 11:17:13 435.215
ZACube-1 02 Sep 11:08:46 11:12:48 41° 100° (E) 11:16:48 437.345
FUNcube-1 02 Sep 11:13:27 11:17:34 46° 101° (E) 11:21:38 145.935
CUBEBUG 2 02 Sep 11:14:16 11:18:43 77° 281° (WNW) 11:23:02 437.445
CUTE 1.7 + AOD 2 02 Sep 11:14:18 11:16:23 13° 280° (W) 11:18:11 437.475
UWE-3 02 Sep 11:18:24 11:22:46 87° 96° (E) 11:27:04 435.000/436.395/437.385
UNISAT 6 02 Sep 11:22:22 11:25:17 17° 79° (E) 11:28:26 437.425
Cosmos 2491 02 Sep 11:23:33 11:30:14 23° 276° (W) 11:36:24 435.465 / 435.565
SRMSAT 02 Sep 11:29:21 11:35:22 83° 337° (NNW) 11:41:20 437.500
CINEMA 3 02 Sep 11:34:33 11:37:32 16° 281° (W) 11:40:13 145.822/145.860
VERMONT LUNAR 02 Sep 11:42:40 11:44:16 14° 41° (NE) 11:45:59 437.305
HUMSAT D 02 Sep 11:42:40 11:46:26 36° 101° (E) 11:50:14 437.325/437.525
TIGRISAT 02 Sep 11:49:05 11:53:19 38° 78° (ENE) 11:57:38 435.000
DX 1 02 Sep 11:53:28 11:57:02 25° 101° (E) 12:00:43 434.975-435.025
Oscar 11 02 Sep 11:59:29 12:02:39 20° 280° (W) 12:05:41 145.826/435.025
AUBIESAT-1 02 Sep 11:59:58 12:04:17 42° 75° (ENE) 12:08:46 437.475
UKube-1 02 Sep 12:03:39 12:07:26 30° 101° (ESE) 12:11:18 .
M-CUBED/EXP-1 PRIME 02 Sep 12:06:23 12:10:57 64° 75° (ENE) 12:15:41 437.505
ANTELSAT 02 Sep 12:06:26 12:10:59 73° 79° (ENE) 12:15:38 437.575/2403.000
JUGNU 02 Sep 12:07:52 12:12:34 23° 344° (NNW) 12:17:10 437.505
ESTCUBE 1 02 Sep 12:13:30 12:16:33 19° 101° (E) 12:19:49 437.505/2401.250
POLYITAN 1 02 Sep 12:15:13 12:18:34 24° 79° (E) 12:22:01 437.675
CUSAT 1 02 Sep 12:15:42 12:23:23 46° 83° (E) 12:30:16 437.405
DUCHIFAT 1 02 Sep 12:16:32 12:19:47 22° 79° (E) 12:23:08 145.980
POPSAT HIP 1 02 Sep 12:17:13 12:20:36 24° 79° (E) 12:24:06 437.405
CUBEBUG 1 02 Sep 12:18:14 12:20:55 17° 100° (E) 12:23:50 437.445
BUGSAT 1 02 Sep 12:19:44 12:21:12 12° 80° (E) 12:22:55 437.445
AISAT 02 Sep 12:20:42 12:24:47 36° 102° (ESE) 12:28:55 437.250
Cosmos 2504 02 Sep 12:28:00 12:35:58 86° 267° (W) 12:43:21 435.465 / 435.565
DELFI C3 02 Sep 12:31:11 12:32:18 11° 279° (W) 12:33:05 145.870
SO-50 02 Sep 12:31:26 12:36:06 66° 68° (ENE) 12:40:39 436.795
NANOSAT C BR1 02 Sep 12:33:51 12:37:50 42° 79° (E) 12:41:51 145.865
QB50P2 02 Sep 12:33:55 12:37:58 46° 78° (ENE) 12:42:03 145.880/145.840
PCSat 02 Sep 12:47:19 12:51:17 22° 69° (ENE) 12:55:27 145.827
QB50P1 02 Sep 12:47:54 12:52:07 73° 79° (E) 12:56:20 145.935-145.965
VELOX 1 02 Sep 12:48:04 12:52:32 86° 99° (E) 12:57:02 145.980
DANDE 02 Sep 12:52:46 13:01:13 67° 84° (E) 13:09:03 436.750
50 SAT 02 Sep 12:57:12 13:00:51 45° 281° (W) 13:04:29 437.505
UNISAT 6 02 Sep 12:58:17 13:01:56 22° 260° (W) 13:05:27 437.425
VERMONT LUNAR 02 Sep 13:18:11 13:20:37 22° 222° (SW) 13:23:03 437.305
SRMSAT 02 Sep 13:19:27 13:24:41 31° 342° (NNW) 13:29:51 437.500
DX 1 02 Sep 13:30:53 13:33:10 13° 280° (W) 13:35:11 434.975-435.025
AUBIESAT-1 02 Sep 13:38:12 13:38:55 10° 257° (WSW) 13:39:14 437.475
UKube-1 02 Sep 13:42:20 13:43:28 11° 280° (W) 13:44:15 .
SPROUT 02 Sep 13:42:35 13:46:49 57° 101° (ESE) 13:51:04 437.525
ESTCUBE 1 02 Sep 13:49:58 13:53:18 20° 280° (W) 13:56:29 437.505/2401.250
POLYITAN 1 02 Sep 13:52:11 13:54:20 13° 260° (W) 13:56:15 437.675
DUCHIFAT 1 02 Sep 13:53:12 13:55:27 14° 260° (W) 13:57:27 145.980
BUGSAT 1 02 Sep 13:53:19 13:56:34 22° 260° (W) 13:59:40 437.445
CUBEBUG 1 02 Sep 13:53:42 13:57:08 21° 280° (W) 14:00:27 437.445
POPSAT HIP 1 02 Sep 13:54:20 13:56:21 13° 260° (W) 13:58:05 437.405
CUSAT 1 02 Sep 13:59:33 14:05:39 22° 266° (W) 14:10:50 437.405
JUGNU 02 Sep 14:00:12 14:02:21 12° 352° (N) 14:04:26 437.505
BEESAT 3 02 Sep 14:03:25 14:07:01 33° 112° (ESE) 14:10:42 437.485
Oscar 19 02 Sep 14:14:33 14:17:53 18° 79° (E) 14:21:29 437.125/150
BEESAT 2 02 Sep 14:17:37 14:21:19 36° 112° (ESE) 14:25:06 435.950
RS-15 02 Sep 14:23:52 14:30:11 18° 116° (ESE) 14:37:22 29.354- 29.394
PHONESAT 2.4 02 Sep 14:27:55 14:31:06 37° 43° (NE) 14:34:19 2401.200-2431.200
PCSat 02 Sep 14:30:10 14:34:35 25° 249° (WSW) 14:38:51 145.827
BEESAT 02 Sep 14:36:36 14:39:13 15° 101° (E) 14:42:07 436.000
DANDE 02 Sep 14:39:02 14:44:10 16° 264° (W) 14:48:23 436.750
TISAT 1 02 Sep 14:40:52 14:44:52 40° 281° (W) 14:48:51 437.305
SWISSCUBE 02 Sep 15:01:06 15:05:28 37° 102° (ESE) 15:09:53 437.505
AIST 2 02 Sep 15:04:50 15:07:51 20° 113° (ESE) 15:11:01 435.215
Gurwin Techsat 1B 02 Sep 15:07:32 15:11:00 18° 79° (E) 15:14:42 435.225
SRMSAT 02 Sep 15:11:17 15:14:27 14° 349° (NNW) 15:17:30 437.500
ITAMSAT 1 02 Sep 15:16:49 15:20:06 18° 79° (E) 15:23:38 435.822/435.867
JAS-2 02 Sep 15:23:55 15:27:45 16° 77° (ENE) 15:32:18 435.910
ITUPSAT 1 02 Sep 15:39:59 15:44:44 75° 281° (W) 15:49:31 437.325
GONETS M04 02 Sep 15:47:50 15:56:40 84° 86° (E) 16:05:34
Oscar 19 02 Sep 15:52:48 15:57:08 27° 259° (W) 16:01:21 437.125/150
PHONESAT 2.4 02 Sep 16:07:32 16:08:58 12° 220° (SW) 16:10:15 2401.200-2431.200
BEESAT 02 Sep 16:12:55 16:16:57 27° 281° (W) 16:20:53 436.000
RS-15 02 Sep 16:31:54 16:42:44 68° 292° (WNW) 16:53:30 29.354- 29.394
STARS 02 Sep 16:35:35 16:39:24 30° 101° (E) 16:43:18 437.465
SWISSCUBE 02 Sep 16:41:57 16:43:14 11° 280° (W) 16:44:06 437.505
AIST 2 02 Sep 16:43:34 16:46:17 16° 294° (WNW) 16:48:50 435.215
Gurwin Techsat 1B 02 Sep 16:46:18 16:50:52 28° 258° (WSW) 16:55:18 435.225
HORYU 2 02 Sep 16:47:31 16:50:06 16° 80° (E) 16:52:55 437.375
ITAMSAT 1 02 Sep 16:55:03 16:59:30 28° 258° (WSW) 17:03:48 435.822/435.867
KKS-1 02 Sep 16:57:40 17:02:05 63° 282° (WNW) 17:06:31 437.445
JAS-2 02 Sep 17:05:39 17:12:30 58° 259° (WSW) 17:19:57 435.910
AO-7 02 Sep 17:07:30 17:15:28 50° 75° (ENE) 17:23:28 29.400- 29.500
MOZHAYETS 4 02 Sep 17:22:31 17:25:55 22° 101° (E) 17:29:29
Cosmos 2499 02 Sep 17:29:34 17:37:35 78° 266° (W) 17:45:01 435.465 / 435.565
JUGNU 02 Sep 17:39:19 17:42:33 15° 12° (NNE) 17:45:50 437.505
STARS 02 Sep 18:14:09 18:15:45 11° 280° (W) 18:17:00 437.465
HORYU 2 02 Sep 18:23:00 18:26:36 23° 259° (W) 18:30:06 437.375
Cubesat XI-IV 02 Sep 18:49:48 18:51:01 11° 80° (E) 18:52:42 437.490
SRMSAT 02 Sep 18:52:41 18:54:57 12° 9° (N) 18:57:18 437.500
MOZHAYETS 4 02 Sep 18:59:58 19:03:01 17° 280° (W) 19:05:53
AO-7 02 Sep 19:01:56 19:08:08 22° 255° (WSW) 19:13:52 29.400- 29.500
CUBESAT XI-V 02 Sep 19:20:06 19:24:24 38° 101° (E) 19:28:48 437.345
ISS 02 Sep 19:24:46 19:27:42 31° 234° (SW) 19:30:37 145.825
JUGNU 02 Sep 19:26:53 19:32:05 33° 19° (NNE) 19:37:19 437.505
CUTE-I 02 Sep 19:30:41 19:35:35 38° 78° (ENE) 19:40:31 437.470
O/OREOS (USA 219) 02 Sep 19:32:51 19:37:00 36° 285° (WNW) 19:41:08 437.305
STRAND 1 02 Sep 19:52:11 19:55:33 19° 101° (E) 19:59:11 437.568
Cubesat XI-IV 02 Sep 20:25:57 20:31:04 45° 258° (WSW) 20:36:07 437.490
PRISM 02 Sep 20:37:18 20:41:13 43° 101° (ESE) 20:45:12 437.425
SRMSAT 02 Sep 20:40:09 20:44:51 25° 17° (NNE) 20:49:38 437.500
AIST 1 02 Sep 21:01:44 21:06:06 73° 266° (W) 21:10:30
CUTE-I 02 Sep 21:12:52 21:15:34 13° 259° (W) 21:17:52 437.470
JUGNU 02 Sep 21:15:20 21:21:12 90° 319° (NW) 21:27:05 437.505
BRITE-PL 02 Sep 21:16:24 21:20:33 85° 79° (E) 21:24:49 437.365/2234.400
STRAND 1 02 Sep 21:30:22 21:34:38 26° 281° (WNW) 21:38:49 437.568
GOMX 1 02 Sep 21:35:51 21:40:03 76° 79° (E) 21:44:26 467.674
DOVE 4 02 Sep 21:40:31 21:44:34 42° 79° (ENE) 21:48:51 437.250
